Regional Weather Roundup
Issued by NWS Albany, NY

Current Version | Previous Version | Text Only | Print | Product List | Glossary On
Versions: 1 2 3 4 5 6 7 8 9 10 11 12 13 14 15 16 17 18 19 20 21 22 23 24 25 26 27 28 29 30 31 32 33 34 35 36 37 38 39 40 41 42 43 44 45 46 47 48 49 50
000 ASUS41 KALY 270910 RWRALY NEW YORK STATE HOURLY WEATHER ROUNDUP NATIONAL WEATHER SERVICE ALBANY NY 500 AM EDT MON APR 27 2015 NOTE: "FAIR" INDICATES FEW OR NO CLOUDS BELOW 12,000 FEET WITH NO SIGNIFICANT WEATHER AND/OR NO OBSTRUCTIONS TO VISIBILITY. NYZ032-033-038>043-046>054-057>066-NYZ062>081-271000- EAST CITY SKY/WX TMP DP RH WIND PRES REMARKS ALBANY CLOUDY 44 33 65 NW3 29.68S GLENS FALLS CLOUDY 45 35 68 NW8 29.66F POUGHKEEPSIE CLOUDY 46 34 62 CALM 29.66S NEWBURGH MOCLDY 45 34 65 CALM 29.67S MONTGOMERY CLOUDY 46 32 58 NW6 29.66S WHITE PLAINS CLOUDY 47 31 53 NW8 29.64S ISLIP CLOUDY 49 32 52 NW6 29.62F NEW YORK CITY MOCLDY 49 32 52 NW9 29.66S CENTRAL PARK CLOUDY 49 29 46 NW6 29.69S $$ NYZ005>009-017-018-044>046-055-056-271000- CENTRAL CITY SKY/WX TMP DP RH WIND PRES REMARKS FULTON CLOUDY 40 35 83 NW5 29.73S SYRACUSE CLOUDY 43 36 76 W5 29.73S ROME CLOUDY 39 34 82 CALM 29.73S ELMIRA CLOUDY 43 35 73 W5 29.73S BINGHAMTON CLOUDY 38 34 85 NW7 29.69S WCI 33 MONTICELLO CLOUDY 39 30 70 NW10 29.68S WCI 32 $$ NYZ026>034-041>043-271000- NORTH CITY SKY/WX TMP DP RH WIND PRES REMARKS WATERTOWN CLOUDY 41 37 86 N6 29.73S FORT DRUM NOT AVBL MASSENA CLOUDY 40 35 83 W6 29.74R SARANAC LAKE CLOUDY 37 36 96 CALM 29.65S PLATTSBURGH LGT RAIN 42 38 85 NW5 29.68R $$ NYZ001>004-010>016-019>021-271000- WEST CITY SKY/WX TMP DP RH WIND PRES REMARKS NIAGARA FALLS CLOUDY 42 36 79 NW9 29.78S BUFFALO CLOUDY 42 35 76 NW6 29.78S DUNKIRK CLOUDY 41 34 76 SW6 29.80F JAMESTOWN CLOUDY 37 30 75 NW7 29.77S WCI 32 WELLSVILLE PTCLDY 33 28 81 W9 29.74F WCI 25 ROCHESTER CLOUDY 44 34 67 NW6 29.76R PENN YAN CLOUDY 43 34 70 W3 29.73S $$ KEY WCI = WIND CHILL INDEX VSB = VISIBILITY HX = HEAT INDEX $$

USA.gov is the U.S. government's official web portal to all federal, state and local government web resources and services.